Wetbulb
48.67 47.94 47.24 46.95 46.48 46.41 45.95 45.32 44.85 44.55 44.27 44.06 44.29 43.89 43.66 43.80 44.06 44.81 45.09 44.62 45.20 47.20 49.09 50.15 50.85 51.35 51.54 51.84 52.31 52.41 52.14 52.26 52.41 52.41 52.35 52.51 52.45 52.67 53.06 53.42 53.58 53.90 54.37
48.93 48.69 47.65 47.00 46.40 46.41 46.09 45.61 44.66 44.45 44.02 44.17 43.27 43.39 43.46 43.64 43.64 44.18 44.32 43.13 42.68 43.46 45.22 47.42 48.36 49.58 50.17 50.74 51.39 51.60 51.37 51.48 51.40 51.31 51.33 51.44 51.82 52.13 52.28 52.50 52.78 53.11 53.50
47.91 47.18 47.25 46.24 45.57 45.36 44.65 44.22 43.66 44.08 44.05 43.39 42.85 42.85 43.15 42.84 42.90 43.01 43.58 43.30 43.41 41.45 41.02 44.04 46.38 47.82 48.30 49.12 50.37 50.87 50.65 50.28 50.05 50.03 50.56 50.98 50.97 51.03 51.45 51.70 52.02 52.42 52.70
47.90 47.65 46.73 45.35 45.01 44.59 44.58 44.00 43.70 43.29 43.39 43.14 42.90 42.90 42.73 42.49 42.29 42.50 42.79 42.25 42.73 42.48 42.30 42.32 43.35 45.46 45.76 47.36 49.14 49.85 49.92 49.26 48.81 49.45 49.57 49.73 50.03 50.19 50.57 51.04 51.39 51.70 52.07
47.19 46.94 46.39 45.28 44.75 44.18 44.07 43.22 42.71 43.36 42.77 42.76 41.92 42.88 42.76 42.47 41.96 41.96 41.92 41.52 41.91 42.02 42.06 42.39 42.65 43.40 43.69 45.24 47.03 48.49 48.58 48.30 48.38 48.45 48.59 48.83 49.16 49.72 50.15 50.63 50.97 51.40 51.78
46.91 46.98 46.12 44.73 44.65 44.01 42.94 42.90 42.32 42.07 41.92 41.35 40.25 40.21 42.26 42.36 42.46 42.41 41.84 41.60 41.84 41.32 41.64 41.14 41.15 40.88 42.66 43.84 45.13 46.04 46.77 47.80 47.59 47.71 48.08 48.56 48.88 49.24 49.80 50.56 51.18 51.81 52.33
46.79 46.54 45.44 44.02 44.42 43.47 42.97 42.61 42.16 41.55 41.21 41.28 41.79 42.78 41.83 41.45 41.08 41.56 42.22 41.85 41.37 40.94 40.92 40.75 40.39 39.91 39.63 42.14 42.95 43.72 45.43 47.00 46.83 47.28 47.84 48.28 48.88 49.55 50.27 50.84 51.20 51.55 52.13
46.31 45.88 44.80 43.97 43.87 43.58 41.95 41.30 41.23 40.24 40.41 40.22 40.60 41.09 40.74 39.50 40.89 41.10 41.87 40.47 39.69 40.64 40.15 40.31 39.93 39.24 38.98 39.02 39.49 42.37 43.49 44.73 46.01 47.06 47.79 48.47 49.23 49.86 50.51 50.91 51.30 51.49 51.83
45.33 45.13 45.07 44.19 43.79 43.30 41.75 41.75 41.36 40.86 40.39 38.95 39.06 39.09 38.97 38.38 37.72 39.98 39.52 39.98 39.09 39.07 39.43 39.76 39.34 39.14 38.96 38.58 39.40 39.69 41.10 42.21 44.29 46.48 47.92 48.68 49.11 49.67 50.41 50.93 51.48 51.48 51.55
44.57 44.83 44.57 43.97 43.19 43.02 41.94 41.28 40.72 40.73 41.11 38.88 38.16 37.75 37.94 36.64 35.19 34.96 38.80 38.73 39.54 38.50 39.67 39.02 38.64 38.74 38.79 38.64 39.12 39.67 40.54 41.10 43.60 46.01 47.54 48.33 48.99 49.81 50.65 50.69 51.04 51.33 51.15
44.30 44.19 43.96 43.54 42.59 42.18 41.72 40.42 39.42 38.81 39.50 39.55 38.61 36.81 36.39 36.13 35.54 33.60 32.85 36.06 37.97 39.44 38.92 38.50 38.11 37.89 38.51 38.53 38.14 38.50 39.91 41.23 43.49 45.17 46.89 48.06 48.88 49.60 50.04 50.50 50.63 50.53 50.36
43.38 43.33 43.04 42.60 42.35 41.38 40.45 39.64 39.37 38.92 38.07 38.22 37.75 36.71 36.01 35.16 34.35 33.65 32.49 33.38 32.47 35.38 37.40 37.61 37.47 37.84 38.31 38.07 38.43 39.49 39.69 40.67 42.40 44.24 46.01 47.20 47.77 48.06 48.79 49.25 49.43 49.27 49.42
41.74 41.60 42.02 41.60 41.05 40.61 39.86 39.22 38.22 37.74 37.17 36.59 36.42 35.79 35.87 34.95 34.91 33.85 32.19 31.10 30.69 33.46 34.52 37.18 37.94 38.21 37.91 37.54 37.25 38.48 39.11 40.35 41.41 43.10 45.13 46.38 45.96 45.73 46.06 47.09 47.67 48.17 48.27
41.72 42.13 41.68 41.53 40.69 39.69 38.68 37.98 37.47 37.12 36.86 36.72 36.12 35.57 35.05 34.79 34.55 33.80 32.22 30.45 28.09 30.30 32.64 33.19 37.28 37.09 37.01 36.84 37.45 38.89 36.51 39.39 40.57 42.09 43.61 44.09 43.59 43.39 43.77 44.52 45.45 45.84 46.29
42.42 41.82 41.44 40.68 39.91 38.65 37.72 37.05 36.55 35.74 35.66 35.96 35.45 35.06 34.07 34.69 34.56 34.02 33.29 32.38 29.81 25.82 27.39 32.82 31.66 36.32 35.75 35.88 36.95 36.58 36.45 38.94 40.48 41.13 41.65 41.80 41.65 41.98 42.57 43.01 43.58 43.84 44.29
42.36 41.27 40.45 39.95 38.74 37.73 36.95 36.22 35.76 35.71 34.82 35.33 35.42 34.46 33.90 34.00 33.75 33.84 33.30 32.84 32.13 29.75 26.56 31.79 32.51 34.15 35.20 35.80 37.02 36.60 36.60 39.77 39.71 40.59 40.94 40.91 41.15 41.41 41.83 42.15 42.30 42.56 43.10
42.09 40.60 39.79 39.02 37.53 36.45 35.88 35.24 35.40 34.95 33.95 34.31 33.84 33.49 32.96 33.70 32.96 33.37 33.74 33.31 32.24 31.74 28.49 30.81 33.22 34.34 34.00 34.33 35.35 36.40 37.10 36.58 37.06 39.84 40.44 40.41 40.30 40.33 40.31 40.63 40.92 41.70 41.99
41.42 40.07 39.34 37.98 36.74 35.98 35.38 34.59 34.28 34.25 33.04 32.76 33.09 32.58 32.00 32.99 32.36 33.12 33.13 32.45 32.38 32.71 30.50 28.13 31.42 32.09 32.74 34.57 34.97 34.86 36.04 37.25 36.38 37.68 38.62 38.73 38.80 38.90 39.22 39.59 39.90 40.16 40.74
40.27 39.64 38.48 36.98 36.06 35.13 34.49 34.58 34.42 33.28 33.09 33.11 32.91 32.25 32.22 32.61 32.01 32.83 32.93 32.33 32.46 32.72 32.20 30.00 29.53 32.88 33.43 34.36 33.85 34.66 34.32 34.01 34.93 36.23 37.35 37.73 38.16 38.54 39.00 39.47 39.71 39.81 39.93
39.66 38.46 37.76 36.61 35.36 34.55 33.75 33.46 33.08 33.06 32.72 32.57 32.36 32.61 33.00 32.75 32.33 32.42 32.07 31.74 31.96 31.74 32.16 30.76 30.45 30.62 31.83 33.20 33.16 30.61 29.85 31.50 30.86 33.43 35.06 35.83 36.88 37.33 38.02 38.81 39.07 39.35 40.30
39.24 37.86 36.41 35.19 34.25 33.37 32.88 32.17 31.56 31.50 31.59 31.47 32.50 33.00 33.41 33.86 34.02 33.37 32.02 32.17 31.97 31.15 30.32 29.60 29.07 29.48 29.60 29.39 28.34 29.64 28.13 28.71 30.16 31.60 30.21 30.80 32.09 32.34 33.08 35.84 36.49 38.17 38.57
37.49 36.02 34.39 32.76 31.35 30.04 34.33 34.16 32.41 31.45 31.83 32.18 32.18 33.27 33.33 33.58 33.07 34.16 34.40 34.61 33.66 30.82 30.09 29.84 29.72 28.11 28.11 28.64 28.94 27.82 27.76 26.96 24.15 30.25 28.32 27.30 30.17 29.66 31.87 33.60 36.92 37.28 37.94
34.20 32.08 30.57 29.83 28.45 28.82 35.00 35.04 34.45 32.77 32.98 33.04 33.06 32.21 31.79 32.86 33.17 32.18 33.29 33.89 33.97 34.84 35.06 31.89 28.73 28.31 27.45 28.47 28.97 28.04 27.31 26.39 25.33 28.01 28.00 25.83 29.36 28.92 31.89 33.68 36.49 37.16 38.36
30.86 29.22 28.48 28.29 27.17 28.88 35.13 34.91 34.77 34.12 33.30 32.84 32.34 31.81 31.59 31.91 32.44 32.39 31.59 31.23 31.82 32.07 32.31 32.21 30.66 29.89 30.34 31.10 29.93 28.81 27.89 27.16 27.69 28.45 28.57 23.51 27.75 27.26 29.63 31.55 35.33 35.49 36.36
28.60 27.77 27.59 26.94 26.92 30.15 35.00 35.05 34.72 32.88 31.80 31.36 31.80 32.17 32.29 31.76 32.48 32.84 31.20 29.71 29.60 30.05 33.19 33.57 33.68 33.86 33.54 33.00 31.96 28.80 25.67 24.44 22.78 24.13 27.04 25.31 25.71 26.68 27.76 28.17 30.55 34.96 36.14
27.21 26.99 26.32 26.83 29.82 29.77 34.43 34.94 33.82 32.08 30.86 31.10 31.72 32.10 32.80 31.60 31.84 32.62 30.38 28.81 27.17 27.85 28.46 28.96 29.10 29.33 29.96 29.57 31.83 28.49 26.79 23.50 23.20 21.80 25.70 24.00 24.56 25.73 23.55 28.23 29.76 31.72 32.35
MSLP
1020.01 1020.21 1020.86 1020.96 1021.18 1021.56 1021.98 1022.13 1021.83 1022.00 1022.31 1022.72 1022.84 1022.77 1022.99 1023.19 1023.27 1023.24 1023.75 1024.24 1024.36 1024.31 1024.27 1024.24 1024.14 1024.06 1023.86 1023.48 1023.19 1023.00 1022.77 1022.58 1022.33 1022.02 1021.75 1021.56 1021.38 1021.19 1020.96 1020.72 1020.44 1020.16 1019.96
1019.84 1020.35 1020.92 1021.20 1021.50 1021.55 1021.93 1022.18 1022.01 1022.41 1022.53 1022.99 1023.06 1023.16 1023.33 1023.46 1023.58 1023.47 1023.52 1024.07 1024.44 1024.66 1024.64 1024.48 1024.37 1024.16 1023.96 1023.62 1023.35 1023.13 1022.87 1022.67 1022.44 1022.18 1021.89 1021.60 1021.32 1021.10 1020.93 1020.63 1020.28 1019.98 1019.73
1019.45 1020.55 1021.00 1021.31 1021.60 1022.18 1022.35 1022.20 1022.46 1022.88 1022.65 1023.03 1023.06 1023.23 1023.44 1023.50 1023.68 1023.66 1023.68 1023.68 1024.05 1024.61 1024.70 1024.66 1024.45 1024.28 1024.11 1023.83 1023.55 1023.15 1022.87 1022.74 1022.52 1022.20 1021.84 1021.54 1021.31 1021.08 1020.77 1020.49 1020.16 1019.81 1019.53
1019.58 1020.33 1020.81 1021.26 1021.83 1022.11 1021.79 1022.06 1022.18 1022.81 1022.71 1022.86 1022.79 1022.95 1023.26 1023.47 1023.72 1023.67 1023.66 1023.57 1023.91 1024.26 1024.19 1024.28 1024.53 1024.42 1024.22 1023.97 1023.58 1023.16 1022.93 1022.80 1022.60 1022.16 1021.81 1021.51 1021.23 1020.96 1020.67 1020.28 1019.93 1019.60 1019.32
1019.76 1020.16 1020.64 1021.32 1021.61 1021.94 1021.64 1022.12 1022.43 1022.81 1022.75 1022.90 1022.89 1022.95 1023.23 1023.21 1023.44 1023.43 1023.47 1023.53 1023.84 1024.11 1024.17 1024.20 1024.34 1024.40 1024.21 1023.90 1023.54 1023.22 1022.95 1022.73 1022.36 1022.01 1021.68 1021.36 1021.07 1020.73 1020.37 1019.94 1019.52 1019.17 1018.84
1019.52 1019.86 1020.64 1021.41 1021.60 1021.84 1021.69 1022.25 1022.63 1023.07 1023.11 1023.24 1023.04 1023.02 1023.21 1023.26 1023.27 1023.29 1023.27 1023.35 1023.57 1024.02 1024.14 1024.34 1024.41 1024.19 1023.84 1023.62 1023.43 1023.22 1022.97 1022.62 1022.23 1021.89 1021.55 1021.18 1020.86 1020.47 1020.00 1019.50 1018.99 1018.51 1018.13
1019.21 1019.71 1020.46 1021.24 1021.37 1021.78 1021.75 1022.20 1022.86 1023.05 1023.28 1023.53 1023.23 1022.80 1023.01 1023.03 1022.89 1022.92 1023.05 1023.12 1023.39 1023.71 1023.98 1024.16 1024.12 1024.01 1023.89 1023.59 1023.33 1023.17 1022.89 1022.53 1022.17 1021.73 1021.32 1020.91 1020.47 1019.97 1019.43 1018.95 1018.45 1017.94 1017.48
1019.08 1019.71 1020.17 1020.79 1021.02 1021.53 1021.74 1022.32 1022.87 1023.05 1023.48 1023.88 1023.39 1023.01 1022.58 1022.89 1022.68 1022.78 1022.76 1023.06 1023.40 1023.63 1023.77 1023.82 1023.86 1023.84 1023.72 1023.49 1023.31 1023.07 1022.83 1022.48 1022.06 1021.54 1021.06 1020.55 1019.97 1019.42 1018.88 1018.31 1017.77 1017.28 1016.89
1018.86 1019.32 1019.92 1020.36 1020.78 1021.36 1021.63 1022.41 1022.76 1022.91 1023.35 1024.06 1024.11 1023.63 1023.05 1022.61 1022.68 1022.78 1023.06 1023.20 1023.39 1023.52 1023.51 1023.64 1023.66 1023.54 1023.42 1023.31 1023.15 1022.90 1022.58 1022.42 1021.95 1021.34 1020.72 1020.08 1019.51 1018.96 1018.32 1017.65 1017.11 1016.66 1016.21
1018.67 1019.17 1019.77 1019.94 1020.69 1021.08 1021.39 1022.44 1022.81 1023.04 1023.37 1023.88 1024.26 1024.07 1023.88 1023.69 1023.42 1023.07 1022.94 1022.94 1023.02 1023.05 1023.03 1023.26 1023.35 1023.35 1023.20 1023.02 1022.90 1022.71 1022.42 1022.22 1021.72 1021.09 1020.45 1019.76 1019.08 1018.36 1017.65 1017.01 1016.44 1015.99 1015.64
1018.21 1018.98 1019.36 1019.95 1020.50 1020.80 1021.21 1022.28 1022.98 1023.25 1023.53 1023.96 1024.10 1024.30 1024.22 1024.04 1024.12 1024.07 1023.27 1022.76 1022.62 1022.43 1022.67 1022.84 1022.90 1022.94 1022.76 1022.62 1022.56 1022.45 1022.20 1021.91 1021.34 1020.71 1020.07 1019.30 1018.51 1017.79 1017.08 1016.43 1015.82 1015.32 1015.04
1017.66 1018.44 1019.19 1019.72 1020.34 1020.36 1021.24 1022.18 1023.01 1023.40 1023.69 1024.19 1024.47 1024.49 1024.24 1023.94 1024.02 1024.14 1023.95 1023.27 1022.94 1022.35 1022.41 1022.39 1022.34 1022.25 1022.21 1022.15 1022.05 1021.91 1021.73 1021.38 1020.86 1020.29 1019.53 1018.76 1018.01 1017.26 1016.69 1016.02 1015.35 1014.74 1014.41
1016.76 1017.76 1018.46 1019.41 1019.97 1020.13 1021.16 1021.98 1022.92 1023.40 1023.66 1024.26 1024.52 1024.37 1024.42 1024.36 1024.49 1024.55 1024.60 1024.30 1023.68 1022.59 1022.09 1021.80 1021.67 1021.69 1021.70 1021.78 1021.61 1021.33 1021.02 1020.64 1020.15 1019.60 1018.81 1018.00 1017.34 1016.72 1016.14 1015.59 1014.98 1014.26 1013.64
1015.72 1016.89 1017.82 1018.96 1019.43 1019.95 1021.04 1021.87 1022.81 1023.30 1023.55 1024.04 1024.45 1024.57 1024.46 1024.54 1024.78 1024.84 1024.87 1024.80 1024.12 1023.48 1022.53 1022.16 1021.49 1021.47 1021.52 1021.41 1021.12 1020.72 1020.37 1019.85 1019.30 1018.68 1017.98 1017.23 1016.60 1015.96 1015.33 1014.70 1014.29 1013.57 1013.07
1015.10 1016.06 1017.21 1018.42 1019.02 1019.72 1020.67 1021.57 1022.48 1022.94 1023.32 1023.80 1024.26 1024.44 1024.50 1024.59 1024.79 1024.83 1024.91 1024.93 1024.90 1024.35 1023.39 1022.16 1022.13 1021.30 1021.53 1021.18 1020.66 1020.18 1019.64 1019.08 1018.44 1017.80 1017.06 1016.35 1015.70 1014.94 1014.23 1013.61 1013.17 1012.52 1011.92
1014.11 1015.31 1016.41 1017.80 1018.51 1019.35 1020.25 1021.16 1022.09 1022.54 1023.14 1023.57 1024.00 1024.27 1024.37 1024.51 1024.59 1024.69 1024.78 1024.81 1024.76 1024.65 1023.95 1022.64 1022.38 1021.86 1021.37 1020.60 1020.02 1019.45 1018.81 1018.09 1017.46 1016.84 1016.09 1015.34 1014.55 1013.68 1012.97 1012.29 1011.75 1011.18 1010.68
1013.32 1014.64 1015.75 1016.93 1017.83 1018.70 1019.77 1020.76 1021.59 1022.29 1022.93 1023.37 1023.84 1024.07 1024.10 1024.32 1024.42 1024.47 1024.48 1024.40 1024.22 1024.16 1023.55 1022.46 1022.27 1021.59 1020.82 1019.98 1019.25 1018.67 1018.02 1017.29 1016.47 1015.93 1015.10 1014.29 1013.63 1012.80 1012.01 1011.19 1010.51 1009.75 1009.13
1012.52 1013.77 1015.08 1016.29 1017.21 1018.19 1019.21 1020.22 1021.08 1021.87 1022.52 1022.94 1023.40 1023.84 1023.98 1024.11 1024.19 1024.16 1024.08 1023.92 1023.78 1023.68 1023.43 1022.31 1021.72 1021.09 1020.48 1019.54 1018.58 1017.79 1017.07 1016.40 1015.86 1015.38 1014.57 1013.53 1012.69 1011.86 1010.95 1010.10 1009.38 1008.69 1007.99
1011.91 1013.21 1014.35 1015.41 1016.45 1017.56 1018.71 1019.66 1020.53 1021.47 1022.11 1022.63 1023.06 1023.39 1023.56 1023.68 1023.72 1023.66 1023.59 1023.46 1023.31 1023.08 1022.95 1022.47 1021.09 1020.55 1019.72 1018.96 1017.84 1017.14 1016.41 1015.68 1015.34 1014.95 1014.12 1012.84 1011.58 1010.75 1009.92 1008.98 1008.13 1007.44 1006.75
1011.46 1012.67 1013.84 1014.91 1015.99 1017.11 1018.23 1019.20 1020.21 1021.05 1021.76 1022.32 1022.77 1023.06 1023.24 1023.32 1023.34 1023.40 1023.31 1023.29 1023.16 1022.89 1022.54 1022.02 1020.99 1020.12 1019.41 1018.47 1017.84 1016.67 1015.59 1015.64 1014.77 1014.08 1012.82 1012.04 1010.51 1009.62 1008.91 1007.94 1007.08 1006.39 1005.55
1011.17 1012.34 1013.58 1014.76 1015.78 1016.86 1017.90 1018.94 1020.01 1020.81 1021.48 1022.07 1022.55 1022.83 1022.96 1022.99 1023.03 1023.23 1023.15 1022.91 1022.77 1022.51 1022.16 1021.56 1020.80 1019.88 1018.95 1017.98 1017.48 1016.71 1015.74 1014.63 1014.16 1013.58 1011.79 1011.03 1009.52 1008.96 1007.87 1006.99 1006.09 1005.15 1004.45
1011.22 1012.41 1013.60 1014.58 1015.69 1016.91 1017.90 1018.94 1019.86 1020.60 1021.23 1021.72 1022.12 1022.38 1022.55 1022.49 1022.77 1022.70 1022.56 1022.49 1022.39 1021.94 1021.43 1020.94 1020.33 1019.42 1018.79 1018.05 1017.34 1016.78 1015.76 1014.40 1012.12 1012.84 1011.74 1009.51 1009.43 1007.72 1006.79 1005.79 1004.72 1004.05 1003.18
1011.43 1012.70 1013.77 1014.74 1015.83 1016.94 1017.85 1018.75 1019.61 1020.47 1021.13 1021.58 1021.85 1022.05 1021.99 1022.03 1022.30 1022.31 1022.21 1021.97 1021.54 1021.17 1020.73 1020.29 1019.67 1019.17 1018.46 1017.90 1017.14 1015.94 1015.41 1014.44 1013.22 1012.40 1011.89 1008.59 1008.31 1006.60 1005.68 1004.31 1003.53 1002.55 1001.47
1011.77 1012.83 1013.83 1014.61 1015.70 1016.86 1017.75 1018.68 1019.64 1020.47 1021.12 1021.38 1021.63 1021.68 1021.70 1021.89 1021.97 1021.95 1021.82 1021.49 1020.95 1020.52 1020.10 1019.79 1019.36 1018.82 1018.20 1017.44 1016.99 1016.14 1014.97 1013.40 1012.10 1011.55 1011.38 1008.91 1007.52 1005.93 1004.61 1003.39 1002.38 1001.20 999.62
1012.16 1013.12 1013.79 1014.73 1015.89 1017.01 1017.87 1018.73 1019.73 1020.51 1020.99 1021.19 1021.37 1021.49 1021.59 1021.68 1021.66 1021.71 1021.47 1021.04 1020.47 1020.02 1019.74 1019.44 1018.99 1018.31 1017.77 1017.05 1016.33 1015.23 1014.38 1013.52 1011.21 1010.08 1009.96 1008.95 1006.79 1005.22 1004.05 1002.02 1000.66 998.93 997.89
1012.17 1013.01 1014.06 1015.33 1016.31 1017.16 1017.99 1018.88 1019.81 1020.46 1020.87 1021.05 1021.22 1021.27 1021.34 1021.47 1021.53 1021.46 1021.12 1020.68 1020.30 1019.89 1019.56 1018.93 1018.45 1017.93 1017.46 1016.68 1015.72 1015.24 1014.31 1013.09 1011.95 1009.14 1008.52 1008.25 1006.24 1005.13 1002.22 1000.88 998.91 997.49 996.47
Wind_Speed
6 7 6 6 5 5 4 3 5 5 5 4 4 4 5 5 4 4 5 9 11 9 10 11 13 15 15 15 15 15 15 16 16 17 17 17 18 18 19 19 19 19 19
7 6 5 5 5 5 4 3 4 4 4 2 4 4 3 3 3 4 4 6 8 6 7 10 11 14 15 15 16 15 16 17 17 17 17 17 18 19 19 19 20 19 20
10 9 6 6 6 5 6 5 4 2 3 2 3 3 2 2 3 4 4 3 3 6 2 7 12 15 15 15 16 16 16 17 17 17 18 19 19 19 20 20 21 21 20
11 8 6 6 6 5 5 4 4 2 1 0 1 3 2 3 3 4 4 3 2 3 1 5 9 14 14 15 16 16 16 16 16 17 18 19 19 20 20 21 21 21 21
12 8 7 6 7 5 5 4 3 1 0 0 1 2 1 3 4 4 5 2 2 1 2 7 9 13 13 15 16 16 16 16 17 18 18 19 20 20 21 22 22 22 23
11 8 7 8 6 5 5 4 3 2 1 2 3 3 2 3 3 4 5 3 1 1 2 5 5 7 15 15 16 15 16 17 18 18 19 20 21 21 22 23 23 24 24
11 10 7 8 6 6 6 5 3 3 1 3 4 4 4 3 4 3 3 2 1 1 3 4 4 4 6 15 14 15 17 18 18 19 21 21 21 22 23 24 25 25 26
11 9 9 8 8 5 7 6 4 2 2 3 3 3 3 3 3 4 1 1 1 2 4 5 6 7 7 6 10 16 16 17 19 21 22 23 24 25 25 25 26 26 26
12 10 11 8 8 6 6 5 4 4 2 0 2 3 2 1 2 3 3 1 2 2 4 4 6 7 8 7 10 11 15 18 20 22 24 25 25 26 27 27 28 27 28
12 11 10 9 9 6 7 5 4 3 1 3 1 2 3 3 2 2 3 4 3 6 4 4 5 7 8 6 10 14 17 18 22 24 25 26 27 28 29 28 29 28 29
13 12 11 10 9 6 7 6 5 4 1 1 2 2 0 2 1 2 3 3 4 2 4 3 6 5 6 6 5 9 17 20 23 25 27 28 29 30 30 30 30 30 29
11 12 12 10 9 8 8 7 5 5 4 2 1 2 2 1 2 3 3 4 7 4 5 7 4 4 4 5 9 16 18 22 25 28 28 29 30 31 31 32 32 31 32
12 14 14 11 9 9 9 8 6 5 5 4 5 3 2 1 1 2 3 4 4 4 4 5 3 3 5 4 7 16 20 26 27 28 29 30 31 31 32 32 33 33 33
14 16 13 12 12 11 9 8 6 5 5 4 5 3 2 2 2 3 3 3 5 4 6 7 7 2 4 8 14 24 14 25 28 30 31 32 32 32 32 32 33 34 33
13 17 16 14 12 12 11 10 6 7 6 6 6 6 4 3 3 3 3 3 3 4 5 3 4 4 9 10 13 14 15 22 29 31 32 32 32 33 33 33 34 34 34
18 19 17 15 14 13 12 10 7 8 7 5 4 6 5 4 4 3 4 4 5 6 8 4 9 14 12 12 16 16 16 26 28 30 31 32 32 33 34 35 36 35 34
19 19 18 16 15 14 12 11 9 8 7 6 5 6 6 5 4 4 4 5 5 6 11 11 11 12 15 16 15 14 15 15 14 26 30 33 34 36 36 37 37 36 35
19 19 18 17 16 14 13 12 10 9 9 8 8 6 6 5 6 6 5 7 6 7 9 16 12 12 15 15 16 17 13 12 13 22 32 32 35 36 36 36 35 35 35
20 19 18 17 17 15 14 12 11 9 9 8 7 7 6 6 6 5 6 6 6 6 8 11 14 11 12 12 15 14 14 14 10 25 30 32 33 35 35 35 35 34 34
19 19 17 17 16 15 13 11 10 9 8 7 6 6 7 6 6 6 5 6 7 8 9 10 11 13 12 13 12 14 13 11 13 13 21 26 31 32 34 34 33 34 33
17 18 17 16 15 13 10 12 10 8 8 7 6 7 7 7 7 9 6 7 8 8 8 10 12 13 13 13 14 13 15 15 13 13 16 14 13 14 17 26 28 32 32
16 16 16 15 15 9 20 19 12 7 7 7 7 6 6 7 9 11 11 15 13 11 11 9 11 14 15 14 13 14 16 15 19 6 13 20 14 15 15 14 28 34 36
15 15 15 15 14 11 21 20 17 7 7 6 5 4 4 4 5 6 10 14 14 18 19 14 14 13 16 16 18 19 17 16 17 15 17 21 14 17 15 16 32 36 37
15 14 15 14 13 10 21 19 16 6 6 5 5 4 4 4 4 6 8 9 10 11 11 9 11 14 15 17 16 16 20 21 17 12 13 20 15 17 17 15 32 39 41
13 13 13 14 13 11 19 17 13 6 6 5 4 4 4 5 6 9 8 9 11 10 12 19 23 26 27 27 23 14 13 15 18 16 12 16 15 17 17 19 18 34 35
14 12 13 12 16 12 17 16 12 5 5 3 4 4 6 6 7 12 8 9 10 10 12 14 13 14 18 17 24 13 13 15 15 21 12 15 17 17 17 15 15 16 17
Wind_Direction
157 147 150 147 130 138 125 117 94 96 89 82 68 73 77 85 90 100 101 76 48 40 31 21 15 7 360 358 357 356 355 353 350 348 346 343 340 337 334 331 327 324 320
147 140 144 135 133 117 122 102 87 92 92 88 103 85 84 103 98 113 95 109 75 53 24 13 2 358 354 352 350 350 351 350 347 345 342 338 335 334 331 327 323 320 319
149 151 148 146 134 131 125 117 105 136 122 152 121 119 130 132 137 133 123 78 114 146 38 351 354 349 347 343 341 344 346 346 344 341 337 336 334 329 326 324 321 318 316
154 154 152 141 141 158 128 122 124 154 111 331 177 145 164 170 165 167 152 77 69 357 291 350 334 338 337 334 336 338 339 341 339 335 335 331 329 326 322 318 314 311 309
163 153 151 140 152 153 131 125 113 320 194 230 296 207 227 191 182 183 169 130 102 346 347 336 327 324 326 328 330 331 334 335 332 332 329 327 323 319 316 312 310 307 303
167 154 145 153 150 152 130 135 131 95 17 334 276 239 195 192 189 209 191 192 111 314 317 330 321 317 325 323 323 323 325 326 329 328 324 321 318 314 310 306 303 301 301
169 159 150 158 156 160 138 140 140 159 108 337 266 193 186 204 218 203 193 228 305 323 325 311 308 320 308 316 315 318 317 320 321 321 319 317 312 309 306 305 303 300 297
169 165 157 166 160 148 140 151 178 140 88 347 317 277 208 172 186 210 262 268 329 334 313 310 316 308 304 310 305 310 305 311 316 316 315 312 310 310 307 304 301 299 300
170 168 169 159 155 158 148 159 170 183 168 132 347 317 245 38 336 112 196 219 222 308 292 311 302 306 299 300 303 299 302 309 311 313 312 312 309 306 304 302 301 300 295
173 173 169 159 159 162 141 158 160 154 221 194 196 21 41 19 357 308 187 208 205 259 280 289 302 302 296 290 293 292 294 304 307 309 309 308 305 303 302 302 301 301 298
175 176 168 166 161 158 145 150 156 169 191 196 247 183 206 104 78 282 295 308 302 304 295 280 292 289 290 292 292 290 293 301 304 308 307 304 303 302 300 301 300 298 298
173 174 173 168 166 152 147 150 160 165 160 193 181 236 241 210 170 226 271 301 303 290 316 288 264 268 270 287 287 299 299 300 303 304 304 302 301 300 300 298 299 298 294
174 178 173 170 168 150 152 148 161 170 165 188 208 196 214 245 336 283 284 289 298 315 289 289 266 283 307 309 290 302 302 300 300 299 300 300 301 301 298 296 295 292 291
173 166 168 171 166 154 153 153 162 171 172 198 210 220 199 208 218 248 264 298 308 283 298 273 326 297 316 319 305 307 298 297 300 299 298 299 297 296 294 293 289 287 287
169 165 166 168 165 157 158 158 168 174 181 196 205 212 215 216 222 238 248 256 261 302 311 321 301 304 320 303 299 301 295 291 295 296 296 298 297 294 291 289 288 285 284
167 165 164 168 162 159 160 161 172 177 188 192 209 210 211 220 228 237 246 247 245 257 268 280 296 299 302 299 297 299 293 291 293 295 296 295 294 293 291 292 290 287 284
166 166 165 165 162 161 163 168 173 173 192 193 201 220 222 231 241 243 247 252 256 258 272 284 290 295 295 295 297 293 290 288 287 294 297 300 299 296 297 294 292 288 286
166 164 163 163 161 164 164 171 172 176 191 198 202 210 226 230 239 250 254 260 264 272 280 289 294 299 292 294 295 297 297 295 300 301 299 300 298 296 293 291 290 288 284
164 164 163 164 163 162 164 172 175 181 190 200 203 213 221 227 244 251 259 273 280 288 290 284 290 294 298 301 301 298 300 297 301 301 297 294 295 293 291 289 288 286 283
164 164 165 161 159 158 162 165 170 178 185 197 202 219 227 234 249 266 281 292 279 277 290 290 296 304 304 305 303 310 307 304 302 297 290 291 291 293 292 290 290 288 283
165 162 159 155 152 155 159 158 162 168 182 191 202 215 225 239 268 275 281 285 292 291 300 298 298 302 304 311 312 313 302 305 301 302 298 291 293 295 287 287 283 281 282
160 156 156 149 144 144 158 160 159 166 181 192 204 212 221 230 247 262 274 281 285 289 286 289 293 299 301 306 308 307 303 308 311 288 305 294 292 287 284 280 284 287 285
149 150 145 143 138 140 161 164 164 162 183 195 200 217 239 256 253 269 281 289 286 291 294 296 293 297 305 306 304 308 306 299 296 300 293 291 297 287 289 284 290 288 285
153 148 146 138 133 147 160 162 167 156 185 192 200 225 244 261 273 287 295 292 299 294 294 298 297 298 294 302 304 303 301 299 292 292 289 285 298 290 293 287 291 289 284
143 142 134 127 128 142 155 159 165 159 193 194 205 230 252 275 285 308 304 300 299 299 300 305 304 304 306 306 304 304 301 304 301 299 295 285 293 292 294 290 282 280 284
137 130 119 121 134 136 154 162 168 174 180 191 203 229 240 263 301 313 311 313 303 307 312 309 308 304 302 295 300 299 299 298 296 296 296 298 297 299 296 286 277 288 280